contact:dominique.lefevre@mio.osupytheas.fr, maurice.libes@osupytheas.fr, didier.mallarino@osupytheas.fr
Project:EMSO http://www.emso-fr.org/EMSO-France
Depth: 2436.0 m
Title:EMSO Ligure Ouest : Data MII capteur MICROCAT
DateTime_Computer,Latitude,Longitude,Temperature,Conductivity,Pressure,DateTime_Instrument
DateTime_Computer,Latitude,Longitude,degC,S m-1,dbar,DateTime_Instrument
2023-03-12T00:02:32Z,42.805,6.029,13.3039,4.60097,2470.717,2023-3-12T02:05:10Z
2023-03-12T00:05:35Z,42.805,6.029,13.3043,4.60097,2470.707,2023-3-12T02:08:13Z
2023-03-12T00:08:38Z,42.805,6.029,13.3046,4.60092,2470.693,2023-3-12T02:11:16Z
2023-03-12T00:11:41Z,42.805,6.029,13.3044,4.60094,2470.73,2023-3-12T02:14:19Z
2023-03-12T00:14:44Z,42.805,6.029,13.3040,4.60096,2470.67,2023-3-12T02:17:22Z
2023-03-12T00:17:47Z,42.805,6.029,13.3039,4.60099,2470.661,2023-3-12T02:20:25Z
2023-03-12T00:20:50Z,42.805,6.029,13.3045,4.60107,2470.684,2023-3-12T02:23:28Z
2023-03-12T00:23:53Z,42.805,6.029,13.3045,4.60099,2470.693,2023-3-12T02:26:31Z
2023-03-12T00:26:56Z,42.805,6.029,13.3041,4.60092,2470.693,2023-3-12T02:29:34Z
2023-03-12T00:30:00Z,42.805,6.029,13.3039,4.60104,2470.684,2023-3-12T02:32:37Z
2023-03-12T00:33:03Z,42.805,6.029,13.3034,4.60109,2470.67,2023-3-12T02:35:40Z
2023-03-12T00:36:06Z,42.805,6.029,13.3037,4.60103,2470.646,2023-3-12T02:38:43Z
2023-03-12T00:39:09Z,42.805,6.029,13.3048,4.60087,2470.646,2023-3-12T02:41:46Z
2023-03-12T00:42:12Z,42.805,6.029,13.3040,4.60086,2470.67,2023-3-12T02:44:50Z
2023-03-12T00:45:15Z,42.805,6.029,13.3035,4.60092,2470.646,2023-3-12T02:47:53Z
2023-03-12T00:48:18Z,42.805,6.029,13.3037,4.60089,2470.646,2023-3-12T02:50:56Z
2023-03-12T00:51:21Z,42.805,6.029,13.3031,4.60106,2470.646,2023-3-12T02:53:59Z
2023-03-12T00:54:24Z,42.805,6.029,13.3036,4.60087,2470.67,2023-3-12T02:57:02Z
2023-03-12T00:57:27Z,42.805,6.029,13.3040,4.60095,2470.646,2023-3-12T03:00:05Z
2023-03-12T01:00:30Z,42.805,6.029,13.3046,4.60101,2470.661,2023-3-12T03:03:08Z
2023-03-12T01:03:33Z,42.805,6.029,13.3048,4.60099,2470.661,2023-3-12T03:06:11Z
2023-03-12T01:06:37Z,42.805,6.029,13.3051,4.60097,2470.646,2023-3-12T03:09:14Z
2023-03-12T01:09:40Z,42.805,6.029,13.3043,4.60103,2470.661,2023-3-12T03:12:17Z
2023-03-12T01:12:43Z,42.805,6.029,13.3047,4.60092,2470.661,2023-3-12T03:15:20Z
2023-03-12T01:15:46Z,42.805,6.029,13.3049,4.60095,2470.67,2023-3-12T03:18:23Z
2023-03-12T01:18:49Z,42.805,6.029,13.3036,4.60098,2470.646,2023-3-12T03:21:27Z
2023-03-12T01:21:52Z,42.805,6.029,13.3055,4.60102,2470.637,2023-3-12T03:24:30Z
2023-03-12T01:24:55Z,42.805,6.029,13.3054,4.60112,2470.646,2023-3-12T03:27:33Z
2023-03-12T01:27:58Z,42.805,6.029,13.3046,4.60097,2470.646,2023-3-12T03:30:36Z
2023-03-12T01:31:01Z,42.805,6.029,13.3056,4.60096,2470.684,2023-3-12T03:33:39Z
2023-03-12T01:34:04Z,42.805,6.029,13.3062,4.60099,2470.661,2023-3-12T03:36:42Z
2023-03-12T01:37:07Z,42.805,6.029,13.3051,4.60097,2470.624,2023-3-12T03:39:45Z
2023-03-12T01:40:10Z,42.805,6.029,13.3043,4.60100,2470.624,2023-3-12T03:42:48Z
2023-03-12T01:43:13Z,42.805,6.029,13.3047,4.60092,2470.661,2023-3-12T03:45:51Z
2023-03-12T01:46:17Z,42.805,6.029,13.3052,4.60101,2470.624,2023-3-12T03:48:54Z
2023-03-12T01:49:20Z,42.805,6.029,13.3068,4.60107,2470.661,2023-3-12T03:51:57Z
2023-03-12T01:52:23Z,42.805,6.029,13.3048,4.60103,2470.637,2023-3-12T03:55:00Z
2023-03-12T01:55:26Z,42.805,6.029,13.3051,4.60101,2470.624,2023-3-12T03:58:04Z
2023-03-12T01:58:29Z,42.805,6.029,13.3043,4.60098,2470.624,2023-3-12T04:01:07Z
2023-03-12T02:01:32Z,42.805,6.029,13.3047,4.60096,2470.6,2023-3-12T04:04:10Z
2023-03-12T02:04:35Z,42.805,6.029,13.3051,4.60104,2470.661,2023-3-12T04:07:13Z
2023-03-12T02:07:38Z,42.805,6.029,13.3054,4.60096,2470.646,2023-3-12T04:10:16Z
2023-03-12T02:10:41Z,42.805,6.029,13.3051,4.60104,2470.624,2023-3-12T04:13:19Z
2023-03-12T02:13:44Z,42.805,6.029,13.3039,4.60108,2470.637,2023-3-12T04:16:22Z
2023-03-12T02:16:47Z,42.805,6.029,13.3048,4.60103,2470.624,2023-3-12T04:19:25Z
2023-03-12T02:19:50Z,42.805,6.029,13.3046,4.60095,2470.637,2023-3-12T04:22:28Z
2023-03-12T02:22:54Z,42.805,6.029,13.3045,4.60101,2470.661,2023-3-12T04:25:31Z
2023-03-12T02:25:57Z,42.805,6.029,13.3053,4.60089,2470.661,2023-3-12T04:28:34Z
2023-03-12T02:29:00Z,42.805,6.029,13.3041,4.60096,2470.646,2023-3-12T04:31:37Z
2023-03-12T02:32:03Z,42.805,6.029,13.3034,4.60125,2470.661,2023-3-12T04:34:40Z
2023-03-12T02:35:06Z,42.805,6.029,13.3048,4.60102,2470.624,2023-3-12T04:37:44Z
2023-03-12T02:38:09Z,42.805,6.029,13.3056,4.60108,2470.624,2023-3-12T04:40:47Z
2023-03-12T02:41:12Z,42.805,6.029,13.3051,4.60102,2470.6,2023-3-12T04:43:50Z
2023-03-12T02:44:15Z,42.805,6.029,13.3044,4.60102,2470.614,2023-3-12T04:46:53Z
2023-03-12T02:47:18Z,42.805,6.029,13.3049,4.60098,2470.624,2023-3-12T04:49:56Z
2023-03-12T02:50:21Z,42.805,6.029,13.3044,4.60111,2470.624,2023-3-12T04:52:59Z
2023-03-12T02:53:24Z,42.805,6.029,13.3064,4.60113,2470.577,2023-3-12T04:56:02Z
2023-03-12T02:56:27Z,42.805,6.029,13.3064,4.60097,2470.6,2023-3-12T04:59:05Z
2023-03-12T02:59:31Z,42.805,6.029,13.3051,4.60100,2470.577,2023-3-12T05:02:08Z
2023-03-12T03:02:34Z,42.805,6.029,13.3044,4.60102,2470.577,2023-3-12T05:05:11Z
2023-03-12T03:05:37Z,42.805,6.029,13.3045,4.60100,2470.624,2023-3-12T05:08:14Z
2023-03-12T03:08:40Z,42.805,6.029,13.3049,4.60093,2470.6,2023-3-12T05:11:17Z
2023-03-12T03:11:43Z,42.805,6.029,13.3055,4.60090,2470.6,2023-3-12T05:14:21Z
2023-03-12T03:14:46Z,42.805,6.029,13.3046,4.60108,2470.6,2023-3-12T05:17:24Z
2023-03-12T03:17:49Z,42.805,6.029,13.3053,4.60101,2470.577,2023-3-12T05:20:27Z
2023-03-12T03:20:52Z,42.805,6.029,13.3059,4.60107,2470.6,2023-3-12T05:23:30Z
2023-03-12T03:23:55Z,42.805,6.029,13.3053,4.60106,2470.6,2023-3-12T05:26:33Z
2023-03-12T03:26:58Z,42.805,6.029,13.3052,4.60100,2470.577,2023-3-12T05:29:36Z
2023-03-12T03:30:01Z,42.805,6.029,13.3054,4.60102,2470.591,2023-3-12T05:32:39Z
2023-03-12T03:33:04Z,42.805,6.029,13.3048,4.60097,2470.624,2023-3-12T05:35:42Z
2023-03-12T03:36:08Z,42.805,6.029,13.3051,4.60112,2470.577,2023-3-12T05:38:45Z
2023-03-12T03:39:11Z,42.805,6.029,13.3056,4.60108,2470.6,2023-3-12T05:41:48Z
2023-03-12T03:42:14Z,42.805,6.029,13.3048,4.60097,2470.577,2023-3-12T05:44:51Z
2023-03-12T03:45:17Z,42.805,6.029,13.3061,4.60109,2470.624,2023-3-12T05:47:54Z
2023-03-12T03:48:20Z,42.805,6.029,13.3063,4.60113,2470.577,2023-3-12T05:50:58Z
2023-03-12T03:51:23Z,42.805,6.029,13.3056,4.60102,2470.591,2023-3-12T05:54:01Z
2023-03-12T03:54:26Z,42.805,6.029,13.3052,4.60109,2470.6,2023-3-12T05:57:04Z
2023-03-12T03:57:29Z,42.805,6.029,13.3047,4.60099,2470.577,2023-3-12T06:00:07Z
2023-03-12T04:00:32Z,42.805,6.029,13.3046,4.60097,2470.614,2023-3-12T06:03:10Z
2023-03-12T04:03:35Z,42.805,6.029,13.3051,4.60098,2470.637,2023-3-12T06:06:13Z
2023-03-12T04:06:38Z,42.805,6.029,13.3049,4.60103,2470.614,2023-3-12T06:09:16Z
2023-03-12T04:09:41Z,42.805,6.029,13.3047,4.60094,2470.614,2023-3-12T06:12:19Z
2023-03-12T04:12:44Z,42.805,6.029,13.3042,4.60103,2470.614,2023-3-12T06:15:22Z
2023-03-12T04:15:47Z,42.805,6.029,13.3051,4.60097,2470.6,2023-3-12T06:18:25Z
2023-03-12T04:18:51Z,42.805,6.029,13.3058,4.60109,2470.591,2023-3-12T06:21:28Z
2023-03-12T04:21:54Z,42.805,6.029,13.3058,4.60104,2470.577,2023-3-12T06:24:31Z
2023-03-12T04:24:57Z,42.805,6.029,13.3088,4.60117,2470.614,2023-3-12T06:27:35Z
2023-03-12T04:28:00Z,42.805,6.029,13.3071,4.60107,2470.6,2023-3-12T06:30:38Z
2023-03-12T04:31:03Z,42.805,6.029,13.3061,4.60114,2470.6,2023-3-12T06:33:41Z
2023-03-12T04:34:06Z,42.805,6.029,13.3056,4.60108,2470.6,2023-3-12T06:36:44Z
2023-03-12T04:37:09Z,42.805,6.029,13.3060,4.60106,2470.6,2023-3-12T06:39:47Z
2023-03-12T04:40:12Z,42.805,6.029,13.3061,4.60110,2470.586,2023-3-12T06:42:50Z
2023-03-12T04:43:15Z,42.805,6.029,13.3062,4.60102,2470.624,2023-3-12T06:45:53Z
2023-03-12T04:46:18Z,42.805,6.029,13.3058,4.60117,2470.6,2023-3-12T06:48:56Z
2023-03-12T04:49:21Z,42.805,6.029,13.3056,4.60104,2470.591,2023-3-12T06:51:59Z
2023-03-12T04:52:24Z,42.805,6.029,13.3060,4.60105,2470.553,2023-3-12T06:55:02Z
2023-03-12T04:55:28Z,42.805,6.029,13.3067,4.60117,2470.6,2023-3-12T06:58:05Z
2023-03-12T04:58:31Z,42.805,6.029,13.3072,4.60115,2470.6,2023-3-12T07:01:08Z
2023-03-12T05:01:34Z,42.805,6.029,13.3063,4.60108,2470.6,2023-3-12T07:04:11Z
2023-03-12T05:04:37Z,42.805,6.029,13.3074,4.60110,2470.591,2023-3-12T07:07:15Z
2023-03-12T05:07:40Z,42.805,6.029,13.3057,4.60103,2470.637,2023-3-12T07:10:18Z
2023-03-12T05:10:43Z,42.805,6.029,13.3063,4.60116,2470.637,2023-3-12T07:13:21Z
2023-03-12T05:13:46Z,42.805,6.029,13.3063,4.60109,2470.553,2023-3-12T07:16:24Z
2023-03-12T05:16:49Z,42.805,6.029,13.3063,4.60116,2470.553,2023-3-12T07:19:27Z
2023-03-12T05:19:52Z,42.805,6.029,13.3075,4.60106,2470.614,2023-3-12T07:22:30Z
2023-03-12T05:22:55Z,42.805,6.029,13.3061,4.60097,2470.61,2023-3-12T07:25:33Z
2023-03-12T05:25:58Z,42.805,6.029,13.3063,4.60104,2470.6,2023-3-12T07:28:36Z
2023-03-12T05:29:01Z,42.805,6.029,13.3061,4.60110,2470.614,2023-3-12T07:31:39Z
2023-03-12T05:32:04Z,42.805,6.029,13.3059,4.60102,2470.614,2023-3-12T07:34:42Z
2023-03-12T05:35:08Z,42.805,6.029,13.3063,4.60130,2470.614,2023-3-12T07:37:45Z
2023-03-12T05:38:11Z,42.805,6.029,13.3073,4.60144,2470.6,2023-3-12T07:40:48Z
2023-03-12T05:41:14Z,42.805,6.029,13.3088,4.60119,2470.624,2023-3-12T07:43:52Z
2023-03-12T05:44:17Z,42.805,6.029,13.3070,4.60104,2470.614,2023-3-12T07:46:55Z
2023-03-12T05:47:20Z,42.805,6.029,13.3061,4.60108,2470.614,2023-3-12T07:49:58Z
2023-03-12T05:50:23Z,42.805,6.029,13.3071,4.60116,2470.614,2023-3-12T07:53:01Z
2023-03-12T05:53:26Z,42.805,6.029,13.3096,4.60136,2470.624,2023-3-12T07:56:04Z
2023-03-12T05:56:29Z,42.805,6.029,13.3084,4.60112,2470.624,2023-3-12T07:59:07Z
2023-03-12T05:59:32Z,42.805,6.029,13.3072,4.60122,2470.624,2023-3-12T08:02:10Z
2023-03-12T06:02:35Z,42.805,6.029,13.3085,4.60119,2470.624,2023-3-12T08:05:13Z
2023-03-12T06:05:38Z,42.805,6.029,13.3097,4.60111,2470.6,2023-3-12T08:08:16Z
2023-03-12T06:08:41Z,42.805,6.029,13.3073,4.60113,2470.637,2023-3-12T08:11:19Z
2023-03-12T06:11:44Z,42.805,6.029,13.3073,4.60103,2470.661,2023-3-12T08:14:22Z
2023-03-12T06:14:48Z,42.805,6.029,13.3095,4.60102,2470.646,2023-3-12T08:17:25Z
2023-03-12T06:17:51Z,42.805,6.029,13.3067,4.60103,2470.6,2023-3-12T08:20:28Z
2023-03-12T06:20:54Z,42.805,6.029,13.3067,4.60109,2470.67,2023-3-12T08:23:32Z
2023-03-12T06:23:57Z,42.805,6.029,13.3072,4.60111,2470.67,2023-3-12T08:26:35Z
2023-03-12T06:27:00Z,42.805,6.029,13.3079,4.60125,2470.661,2023-3-12T08:29:38Z
2023-03-12T06:30:03Z,42.805,6.029,13.3059,4.60134,2470.646,2023-3-12T08:32:41Z
2023-03-12T06:33:06Z,42.805,6.029,13.3053,4.60103,2470.661,2023-3-12T08:35:44Z
2023-03-12T06:36:09Z,42.805,6.029,13.3063,4.60117,2470.684,2023-3-12T08:38:47Z
2023-03-12T06:39:12Z,42.805,6.029,13.3069,4.60114,2470.684,2023-3-12T08:41:50Z
2023-03-12T06:42:15Z,42.805,6.029,13.3079,4.60114,2470.67,2023-3-12T08:44:53Z
2023-03-12T06:45:18Z,42.805,6.029,13.3080,4.60114,2470.637,2023-3-12T08:47:56Z
2023-03-12T06:48:22Z,42.805,6.029,13.3076,4.60114,2470.67,2023-3-12T08:50:59Z
2023-03-12T06:51:25Z,42.805,6.029,13.3076,4.60125,2470.661,2023-3-12T08:54:02Z
2023-03-12T06:54:28Z,42.805,6.029,13.3058,4.60111,2470.693,2023-3-12T08:57:05Z
2023-03-12T06:57:31Z,42.805,6.029,13.3062,4.60130,2470.693,2023-3-12T09:00:09Z
2023-03-12T07:00:34Z,42.805,6.029,13.3084,4.60117,2470.67,2023-3-12T09:03:12Z
2023-03-12T07:03:37Z,42.805,6.029,13.3071,4.60117,2470.67,2023-3-12T09:06:15Z
2023-03-12T07:06:40Z,42.805,6.029,13.3061,4.60121,2470.67,2023-3-12T09:09:18Z
2023-03-12T07:09:43Z,42.805,6.029,13.3059,4.60111,2470.707,2023-3-12T09:12:21Z
2023-03-12T07:12:46Z,42.805,6.029,13.3071,4.60101,2470.717,2023-3-12T09:15:24Z
2023-03-12T07:15:49Z,42.805,6.029,13.3067,4.60118,2470.707,2023-3-12T09:18:27Z
2023-03-12T07:18:52Z,42.805,6.029,13.3076,4.60120,2470.684,2023-3-12T09:21:30Z
2023-03-12T07:21:55Z,42.805,6.029,13.3082,4.60108,2470.693,2023-3-12T09:24:33Z
2023-03-12T07:24:58Z,42.805,6.029,13.3090,4.60102,2470.707,2023-3-12T09:27:36Z
2023-03-12T07:28:01Z,42.805,6.029,13.3063,4.60111,2470.67,2023-3-12T09:30:39Z
2023-03-12T07:31:05Z,42.805,6.029,13.3063,4.60107,2470.73,2023-3-12T09:33:42Z
2023-03-12T07:34:08Z,42.805,6.029,13.3049,4.60165,2470.717,2023-3-12T09:36:45Z
2023-03-12T07:37:11Z,42.805,6.029,13.3080,4.60138,2470.73,2023-3-12T09:39:49Z
2023-03-12T07:40:14Z,42.805,6.029,13.3073,4.60121,2470.73,2023-3-12T09:42:52Z
2023-03-12T07:43:17Z,42.805,6.029,13.3093,4.60114,2470.717,2023-3-12T09:45:55Z
2023-03-12T07:46:20Z,42.805,6.029,13.3069,4.60133,2470.717,2023-3-12T09:48:58Z
2023-03-12T07:49:23Z,42.805,6.029,13.3067,4.60126,2470.67,2023-3-12T09:52:01Z
2023-03-12T07:52:26Z,42.805,6.029,13.3097,4.60140,2470.717,2023-3-12T09:55:04Z
2023-03-12T07:55:29Z,42.805,6.029,13.3077,4.60117,2470.74,2023-3-12T09:58:07Z
2023-03-12T07:58:32Z,42.805,6.029,13.3096,4.60127,2470.693,2023-3-12T10:01:10Z
2023-03-12T08:01:35Z,42.805,6.029,13.3104,4.60112,2470.754,2023-3-12T10:04:13Z
2023-03-12T08:04:38Z,42.805,6.029,13.3073,4.60124,2470.717,2023-3-12T10:07:16Z
2023-03-12T08:07:42Z,42.805,6.029,13.3069,4.60107,2470.74,2023-3-12T10:10:19Z
2023-03-12T08:10:45Z,42.805,6.029,13.3104,4.60124,2470.777,2023-3-12T10:13:22Z
2023-03-12T08:13:48Z,42.805,6.029,13.3068,4.60122,2470.73,2023-3-12T10:16:25Z
2023-03-12T08:16:51Z,42.805,6.029,13.3063,4.60121,2470.73,2023-3-12T10:19:29Z
2023-03-12T08:19:54Z,42.805,6.029,13.3076,4.60123,2470.707,2023-3-12T10:22:32Z
2023-03-12T08:22:57Z,42.805,6.029,13.3066,4.60127,2470.717,2023-3-12T10:25:35Z
2023-03-12T08:26:00Z,42.805,6.029,13.3092,4.60123,2470.754,2023-3-12T10:28:38Z
2023-03-12T08:29:03Z,42.805,6.029,13.3067,4.60108,2470.73,2023-3-12T10:31:41Z
2023-03-12T08:32:06Z,42.805,6.029,13.3073,4.60114,2470.754,2023-3-12T10:34:44Z
2023-03-12T08:35:09Z,42.805,6.029,13.3076,4.60119,2470.777,2023-3-12T10:37:47Z
2023-03-12T08:38:12Z,42.805,6.029,13.3073,4.60110,2470.74,2023-3-12T10:40:50Z
2023-03-12T08:41:15Z,42.805,6.029,13.3064,4.60133,2470.73,2023-3-12T10:43:53Z
2023-03-12T08:44:19Z,42.805,6.029,13.3061,4.60123,2470.73,2023-3-12T10:46:56Z
2023-03-12T08:47:22Z,42.805,6.029,13.3068,4.60144,2470.754,2023-3-12T10:49:59Z
2023-03-12T08:50:25Z,42.805,6.029,13.3058,4.60161,2470.74,2023-3-12T10:53:03Z
2023-03-12T08:53:28Z,42.805,6.029,13.3081,4.60119,2470.763,2023-3-12T10:56:06Z
2023-03-12T08:56:31Z,42.805,6.029,13.3091,4.60116,2470.763,2023-3-12T10:59:09Z
2023-03-12T08:59:34Z,42.805,6.029,13.3084,4.60102,2470.74,2023-3-12T11:02:12Z
2023-03-12T09:02:37Z,42.805,6.029,13.3068,4.60131,2470.74,2023-3-12T11:05:15Z
2023-03-12T09:05:40Z,42.805,6.029,13.3066,4.60127,2470.74,2023-3-12T11:08:18Z
2023-03-12T09:08:43Z,42.805,6.029,13.3062,4.60130,2470.777,2023-3-12T11:11:21Z
2023-03-12T09:11:46Z,42.805,6.029,13.3054,4.60113,2470.754,2023-3-12T11:14:24Z
2023-03-12T09:14:49Z,42.805,6.029,13.3061,4.60119,2470.777,2023-3-12T11:17:27Z
2023-03-12T09:17:52Z,42.805,6.029,13.3060,4.60127,2470.8,2023-3-12T11:20:30Z
2023-03-12T09:20:56Z,42.805,6.029,13.3053,4.60109,2470.81,2023-3-12T11:23:33Z
2023-03-12T09:23:59Z,42.805,6.029,13.3058,4.60140,2470.8,2023-3-12T11:26:36Z
2023-03-12T09:27:02Z,42.805,6.029,13.3043,4.60118,2470.8,2023-3-12T11:29:40Z
2023-03-12T09:30:05Z,42.805,6.029,13.3046,4.60117,2470.787,2023-3-12T11:32:43Z
2023-03-12T09:33:08Z,42.805,6.029,13.3048,4.60135,2470.763,2023-3-12T11:35:46Z
2023-03-12T09:36:11Z,42.805,6.029,13.3058,4.60099,2470.763,2023-3-12T11:38:49Z
2023-03-12T09:39:14Z,42.805,6.029,13.3048,4.60144,2470.777,2023-3-12T11:41:52Z
2023-03-12T09:42:17Z,42.805,6.029,13.3050,4.60155,2470.824,2023-3-12T11:44:55Z
2023-03-12T09:45:20Z,42.805,6.029,13.3078,4.60119,2470.74,2023-3-12T11:47:58Z
2023-03-12T09:48:23Z,42.805,6.029,13.3069,4.60121,2470.787,2023-3-12T11:51:01Z
2023-03-12T09:51:26Z,42.805,6.029,13.3056,4.60117,2470.787,2023-3-12T11:54:04Z
2023-03-12T09:54:29Z,42.805,6.029,13.3054,4.60114,2470.8,2023-3-12T11:57:07Z
2023-03-12T09:57:33Z,42.805,6.029,13.3041,4.60099,2470.787,2023-3-12T12:00:10Z
2023-03-12T10:00:36Z,42.805,6.029,13.3063,4.60109,2470.787,2023-3-12T12:03:14Z
2023-03-12T10:03:39Z,42.805,6.029,13.3058,4.60125,2470.763,2023-3-12T12:06:17Z
2023-03-12T10:06:42Z,42.805,6.029,13.3056,4.60099,2470.763,2023-3-12T12:09:20Z
2023-03-12T10:09:45Z,42.805,6.029,13.3067,4.60117,2470.8,2023-3-12T12:12:23Z
2023-03-12T10:12:48Z,42.805,6.029,13.3061,4.60110,2470.777,2023-3-12T12:15:26Z
2023-03-12T10:15:51Z,42.805,6.029,13.3058,4.60106,2470.763,2023-3-12T12:18:29Z
2023-03-12T10:18:54Z,42.805,6.029,13.3046,4.60101,2470.763,2023-3-12T12:21:32Z
2023-03-12T10:21:57Z,42.805,6.029,13.3051,4.60099,2470.787,2023-3-12T12:24:35Z
2023-03-12T10:25:00Z,42.805,6.029,13.3054,4.60127,2470.763,2023-3-12T12:27:38Z
2023-03-12T10:28:03Z,42.805,6.029,13.3051,4.60133,2470.8,2023-3-12T12:30:41Z
2023-03-12T10:31:07Z,42.805,6.029,13.3051,4.60105,2470.787,2023-3-12T12:33:44Z
2023-03-12T10:34:10Z,42.805,6.029,13.3051,4.60113,2470.754,2023-3-12T12:36:47Z
2023-03-12T10:37:13Z,42.805,6.029,13.3040,4.60127,2470.75,2023-3-12T12:39:51Z
2023-03-12T10:40:16Z,42.805,6.029,13.3051,4.60107,2470.787,2023-3-12T12:42:54Z
2023-03-12T10:43:19Z,42.805,6.029,13.3041,4.60109,2470.74,2023-3-12T12:45:57Z
2023-03-12T10:46:22Z,42.805,6.029,13.3039,4.60114,2470.787,2023-3-12T12:49:00Z
2023-03-12T10:49:25Z,42.805,6.029,13.3057,4.60102,2470.8,2023-3-12T12:52:03Z
2023-03-12T10:52:28Z,42.805,6.029,13.3051,4.60114,2470.787,2023-3-12T12:55:06Z
2023-03-12T10:55:31Z,42.805,6.029,13.3037,4.60110,2470.754,2023-3-12T12:58:09Z
2023-03-12T10:58:34Z,42.805,6.029,13.3050,4.60092,2470.717,2023-3-12T13:01:12Z
2023-03-12T11:01:37Z,42.805,6.029,13.3046,4.60107,2470.787,2023-3-12T13:04:15Z
2023-03-12T11:04:40Z,42.805,6.029,13.3042,4.60125,2470.73,2023-3-12T13:07:18Z
2023-03-12T11:07:43Z,42.805,6.029,13.3056,4.60110,2470.763,2023-3-12T13:10:21Z
2023-03-12T11:10:47Z,42.805,6.029,13.3056,4.60110,2470.763,2023-3-12T13:13:24Z
2023-03-12T11:13:50Z,42.805,6.029,13.3044,4.60109,2470.763,2023-3-12T13:16:28Z
2023-03-12T11:16:53Z,42.805,6.029,13.3043,4.60106,2470.777,2023-3-12T13:19:31Z
2023-03-12T11:19:56Z,42.805,6.029,13.3038,4.60094,2470.777,2023-3-12T13:22:34Z
2023-03-12T11:22:59Z,42.805,6.029,13.3051,4.60106,2470.754,2023-3-12T13:25:37Z
2023-03-12T11:26:02Z,42.805,6.029,13.3048,4.60107,2470.763,2023-3-12T13:28:40Z
2023-03-12T11:29:05Z,42.805,6.029,13.3048,4.60101,2470.754,2023-3-12T13:31:43Z
2023-03-12T11:32:08Z,42.805,6.029,13.3054,4.60110,2470.717,2023-3-12T13:34:46Z
2023-03-12T11:35:11Z,42.805,6.029,13.3048,4.60104,2470.717,2023-3-12T13:37:49Z
2023-03-12T11:38:14Z,42.805,6.029,13.3058,4.60107,2470.777,2023-3-12T13:40:52Z
2023-03-12T11:41:17Z,42.805,6.029,13.3056,4.60102,2470.754,2023-3-12T13:43:55Z
2023-03-12T11:44:21Z,42.805,6.029,13.3051,4.60104,2470.74,2023-3-12T13:46:58Z
2023-03-12T11:47:24Z,42.805,6.029,13.3053,4.60104,2470.73,2023-3-12T13:50:02Z
2023-03-12T11:50:27Z,42.805,6.029,13.3052,4.60101,2470.717,2023-3-12T13:53:05Z
2023-03-12T11:53:30Z,42.805,6.029,13.3045,4.60133,2470.74,2023-3-12T13:56:08Z
2023-03-12T11:56:33Z,42.805,6.029,13.3051,4.60106,2470.73,2023-3-12T13:59:11Z
2023-03-12T11:59:36Z,42.805,6.029,13.3044,4.60102,2470.73,2023-3-12T14:02:14Z
2023-03-12T12:02:39Z,42.805,6.029,13.3040,4.60104,2470.717,2023-3-12T14:05:17Z
2023-03-12T12:05:42Z,42.805,6.029,13.3043,4.60105,2470.717,2023-3-12T14:08:20Z
2023-03-12T12:08:45Z,42.805,6.029,13.3048,4.60103,2470.73,2023-3-12T14:11:23Z
2023-03-12T12:11:48Z,42.805,6.029,13.3061,4.60101,2470.693,2023-3-12T14:14:26Z
2023-03-12T12:14:51Z,42.805,6.029,13.3046,4.60112,2470.717,2023-3-12T14:17:29Z
2023-03-12T12:17:54Z,42.805,6.029,13.3047,4.60107,2470.73,2023-3-12T14:20:32Z
2023-03-12T12:20:58Z,42.805,6.029,13.3061,4.60103,2470.754,2023-3-12T14:23:35Z
2023-03-12T12:24:01Z,42.805,6.029,13.3054,4.60103,2470.73,2023-3-12T14:26:39Z
2023-03-12T12:27:04Z,42.805,6.029,13.3054,4.60110,2470.693,2023-3-12T14:29:42Z
2023-03-12T12:30:07Z,42.805,6.029,13.3056,4.60107,2470.717,2023-3-12T14:32:45Z
2023-03-12T12:33:10Z,42.805,6.029,13.3049,4.60145,2470.693,2023-3-12T14:35:48Z
2023-03-12T12:36:13Z,42.805,6.029,13.3055,4.60101,2470.707,2023-3-12T14:38:51Z
2023-03-12T12:39:16Z,42.805,6.029,13.3050,4.60111,2470.707,2023-3-12T14:41:54Z
2023-03-12T12:42:19Z,42.805,6.029,13.3046,4.60099,2470.693,2023-3-12T14:44:57Z
2023-03-12T12:45:22Z,42.805,6.029,13.3047,4.60097,2470.73,2023-3-12T14:48:00Z
2023-03-12T12:48:25Z,42.805,6.029,13.3050,4.60103,2470.684,2023-3-12T14:51:03Z
2023-03-12T12:51:28Z,42.805,6.029,13.3046,4.60099,2470.67,2023-3-12T14:54:06Z
2023-03-12T12:54:31Z,42.805,6.029,13.3050,4.60103,2470.693,2023-3-12T14:57:09Z
2023-03-12T12:57:35Z,42.805,6.029,13.3045,4.60109,2470.693,2023-3-12T15:00:12Z
2023-03-12T13:00:38Z,42.805,6.029,13.3043,4.60117,2470.67,2023-3-12T15:03:16Z
2023-03-12T13:03:41Z,42.805,6.029,13.3042,4.60098,2470.67,2023-3-12T15:06:19Z
2023-03-12T13:06:44Z,42.805,6.029,13.3037,4.60098,2470.707,2023-3-12T15:09:22Z
2023-03-12T13:09:47Z,42.805,6.029,13.3047,4.60102,2470.684,2023-3-12T15:12:25Z
2023-03-12T13:12:50Z,42.805,6.029,13.3046,4.60117,2470.684,2023-3-12T15:15:28Z
2023-03-12T13:15:53Z,42.805,6.029,13.3044,4.60095,2470.684,2023-3-12T15:18:31Z
2023-03-12T13:18:56Z,42.805,6.029,13.3043,4.60109,2470.684,2023-3-12T15:21:34Z
2023-03-12T13:21:59Z,42.805,6.029,13.3045,4.60099,2470.646,2023-3-12T15:24:37Z
2023-03-12T13:25:02Z,42.805,6.029,13.3041,4.60095,2470.693,2023-3-12T15:27:40Z
2023-03-12T13:28:05Z,42.805,6.029,13.3041,4.60093,2470.684,2023-3-12T15:30:43Z
2023-03-12T13:31:08Z,42.805,6.029,13.3043,4.60099,2470.67,2023-3-12T15:33:46Z
2023-03-12T13:34:11Z,42.805,6.029,13.3043,4.60106,2470.646,2023-3-12T15:36:49Z
2023-03-12T13:37:15Z,42.805,6.029,13.3043,4.60107,2470.67,2023-3-12T15:39:53Z
2023-03-12T13:40:18Z,42.805,6.029,13.3044,4.60095,2470.67,2023-3-12T15:42:56Z
2023-03-12T13:43:21Z,42.805,6.029,13.3043,4.60094,2470.661,2023-3-12T15:45:59Z
2023-03-12T13:46:24Z,42.805,6.029,13.3045,4.60093,2470.661,2023-3-12T15:49:02Z
2023-03-12T13:49:27Z,42.805,6.029,13.3042,4.60096,2470.67,2023-3-12T15:52:05Z
2023-03-12T13:52:30Z,42.805,6.029,13.3045,4.60094,2470.646,2023-3-12T15:55:08Z
2023-03-12T13:55:33Z,42.805,6.029,13.3042,4.60090,2470.684,2023-3-12T15:58:11Z
2023-03-12T13:58:36Z,42.805,6.029,13.3037,4.60093,2470.637,2023-3-12T16:01:14Z
2023-03-12T14:01:39Z,42.805,6.029,13.3039,4.60106,2470.684,2023-3-12T16:04:17Z
2023-03-12T14:04:42Z,42.805,6.029,13.3043,4.60091,2470.684,2023-3-12T16:07:20Z
2023-03-12T14:07:45Z,42.805,6.029,13.3036,4.60091,2470.684,2023-3-12T16:10:23Z
2023-03-12T14:10:49Z,42.805,6.029,13.3033,4.60090,2470.67,2023-3-12T16:13:27Z
2023-03-12T14:13:52Z,42.805,6.029,13.3033,4.60087,2470.624,2023-3-12T16:16:30Z
2023-03-12T14:16:55Z,42.805,6.029,13.3039,4.60089,2470.661,2023-3-12T16:19:33Z
2023-03-12T14:19:58Z,42.805,6.029,13.3036,4.60090,2470.67,2023-3-12T16:22:36Z
2023-03-12T14:23:01Z,42.805,6.029,13.3034,4.60096,2470.624,2023-3-12T16:25:39Z
2023-03-12T14:26:04Z,42.805,6.029,13.3040,4.60089,2470.637,2023-3-12T16:28:42Z
2023-03-12T14:29:07Z,42.805,6.029,13.3035,4.60094,2470.684,2023-3-12T16:31:45Z
2023-03-12T14:32:10Z,42.805,6.029,13.3034,4.60083,2470.637,2023-3-12T16:34:48Z
2023-03-12T14:35:13Z,42.805,6.029,13.3033,4.60089,2470.637,2023-3-12T16:37:51Z
2023-03-12T14:38:16Z,42.805,6.029,13.3036,4.60091,2470.661,2023-3-12T16:40:54Z
2023-03-12T14:41:19Z,42.805,6.029,13.3039,4.60093,2470.661,2023-3-12T16:43:57Z
2023-03-12T14:44:22Z,42.805,6.029,13.3035,4.60091,2470.661,2023-3-12T16:47:00Z
2023-03-12T14:47:26Z,42.805,6.029,13.3035,4.60092,2470.646,2023-3-12T16:50:04Z
2023-03-12T14:50:29Z,42.805,6.029,13.3034,4.60091,2470.646,2023-3-12T16:53:07Z
2023-03-12T14:53:32Z,42.805,6.029,13.3037,4.60087,2470.646,2023-3-12T16:56:10Z
2023-03-12T14:56:35Z,42.805,6.029,13.3036,4.60092,2470.637,2023-3-12T16:59:13Z
2023-03-12T14:59:38Z,42.805,6.029,13.3034,4.60086,2470.624,2023-3-12T17:02:16Z
2023-03-12T15:02:41Z,42.805,6.029,13.3036,4.60085,2470.624,2023-3-12T17:05:19Z
2023-03-12T15:05:44Z,42.805,6.029,13.3029,4.60084,2470.624,2023-3-12T17:08:22Z
2023-03-12T15:08:47Z,42.805,6.029,13.3030,4.60085,2470.624,2023-3-12T17:11:25Z
2023-03-12T15:11:50Z,42.805,6.029,13.3031,4.60087,2470.624,2023-3-12T17:14:28Z
2023-03-12T15:14:53Z,42.805,6.029,13.3031,4.60087,2470.637,2023-3-12T17:17:31Z